Regional Weather Roundup
Issued by NWS

Home | Current Version | Previous Version | Text Only | Print | Product List | Glossary Off
Versions: 1 2 3 4 5 6 7 8 9 10 11 12 13 14 15 16 17 18 19 20 21 22 23 24 25 26 27 28 29 30 31 32 33 34 35 36 37 38 39 40 41 42 43 44 45 46 47 48 49 50

000
ASUS43 KOAX 240010
RWRNE

WEATHER ROUNDUP FOR NEBRASKA
NATIONAL WEATHER SERVICE OMAHA NE
600 PM CST SUN NOV 23 2014

NOTES: SATELLITE DATA IS BEING USED TO AUGMENT CLOUD COVER ABOVE
       12000 FEET.
       "FAIR" INDICATES FEW OR NO CLOUDS BELOW 12,000 FEET WITH NO
       SIGNIFICANT WEATHER AND/OR OBSTRUCTIONS TO VISIBILITY.

  * THESE STATIONS DO NOT REPORT WEATHER SUCH AS RAIN...SNOW OR FOG.

NEZ001>004-019>022-054>056-240100-
NEBRASKA PANHANDLE

CITY           SKY/WX    TMP DP  RH WIND       PRES   REMARKS
SCOTTSBLUFF    MOCLDY    35  18  49 N13       29.83R WCI  26
6HR MIN TEMP:  35; 6HR MAX TEMP:  45;

ALLIANCE       MOCLDY    35  17  47 NW17      29.78R WCI  25
6HR MIN TEMP:  35; 6HR MAX TEMP:  43;

CHADRON        CLOUDY    37  22  54 NW15G26   29.80R WCI  28
6HR MIN TEMP:  37; 6HR MAX TEMP:  42;

KIMBALL        PTCLDY    31  12  45 NW9       29.80R WCI  23
SIDNEY         CLEAR     35  11  36 NW21      29.79R WCI  24
6HR MIN TEMP:  35; 6HR MAX TEMP:  44;

$$

NEZ057>060-069>072-079>082-240100-
SOUTHWEST NEBRASKA

CITY           SKY/WX    TMP DP  RH WIND       PRES   REMARKS
NORTH PLATTE   PTCLDY    40  14  34 NW10      29.70R WCI  33
6HR MIN TEMP:  40; 6HR MAX TEMP:  50;

IMPERIAL       CLEAR     38  11  32 N15       29.76R WCI  29
6HR MIN TEMP:  38; 6HR MAX TEMP:  50;

LEXINGTON      PTCLDY    43  19  38 N17G26    29.68R
MCCOOK         PTCLDY    43  11  27 NW18      29.70R
6HR MIN TEMP:  43; 6HR MAX TEMP:  51;

OGALLALA       CLEAR     40  17  38 NW30G36   29.74R WCI  29
$$

NEZ005>010-023>029-035>040-094-240100-
NORTH CENTRAL NEBRASKA

CITY           SKY/WX    TMP DP  RH WIND       PRES   REMARKS
VALENTINE      MOCLDY    37  23  56 NW23G32   29.67R WCI  26
6HR MIN TEMP:  37; 6HR MAX TEMP:  47;

AINSWORTH      MOCLDY    38  25  59 NW24G35   29.67R WCI  26
BROKEN BOW     CLEAR     42  20  41 NW26G35   29.65R
6HR MIN TEMP:  41; 6HR MAX TEMP:  49;

O`NEILL        PTCLDY    39  26  59 NW21G35   29.62R WCI  29
ORD            PTCLDY    41  21  44 NW18G28   29.61S
6HR MIN TEMP:  41; 6HR MAX TEMP:  48;

THEDFORD       CLEAR     39  22  49 NW25G37   29.69R WCI  28
$$

NEZ041-046>049-061>064-073>077-083>087-240100-
SOUTH CENTRAL NEBRASKA

CITY           SKY/WX    TMP DP  RH WIND       PRES   REMARKS
AURORA         CLOUDY    40  31  69 N12       29.60R WCI  33
HASTINGS       CLOUDY    41  26  55 N15       29.61R
6HR MIN TEMP:  40; 6HR MAX TEMP:  45; 6HR PCP: TRACE;

HEBRON         CLOUDY    41  32  70 N7        29.60R
HOLDREGE       MOCLDY    44  17  34 N25G38    29.66R
KEARNEY *      MOCLDY    45  19  36 NW24G35   29.66R
YORK           CLOUDY    41  32  70 N12       29.59R
$$

NEZ011>018-030>034-042>045-240100-
NORTHEAST NEBRASKA

CITY           SKY/WX    TMP DP  RH WIND       PRES   REMARKS
NORFOLK        MOCLDY    42  27  55 NW20G28   29.55F
6HR MIN TEMP:  41; 6HR MAX TEMP:  45; 6HR PCP: TRACE;

ALBION         CLOUDY    41  25  53 NW18      29.59R
BLAIR          CLOUDY    43  32  64 NW20G25   29.52R
COLUMBUS *     CLOUDY    39  28  65 NW13      29.59R WCI  32
FREMONT        CLOUDY    43  31  62 NW14      29.56R
TEKAMAH        CLOUDY    44  30  57 N23G30    29.53S
6HR MIN TEMP:  43; 6HR MAX TEMP:  49; 6HR PCP:  0.01;

WAYNE          MOCLDY    39  31  71 NW10      29.55F WCI  32
$$

NEZ050>053-065>068-078-088>093-240100-
SOUTHEAST NEBRASKA

CITY           SKY/WX    TMP DP  RH WIND       PRES   REMARKS
LINCOLN        CLOUDY    44  30  57 N23       29.57R
6HR MIN TEMP:  42; 6HR MAX TEMP:  47; 6HR PCP: TRACE;

OMAHA EPPLEY   CLOUDY    44  33  65 NW17G28   29.53R
6HR MIN TEMP:  43; 6HR MAX TEMP:  49; 6HR PCP: TRACE;

BEATRICE       CLOUDY    43  32  66 N18       29.56R
FALLS CITY     CLOUDY    42  37  82 NW15G23   29.49R
6HR MIN TEMP:  42; 6HR MAX TEMP:  58; 6HR PCP:  0.02;

NEBRASKA CITY  CLOUDY    42  35  75 N18G25    29.51R
PLATTSMOUTH    CLOUDY    42  33  69 NW21G29   29.50S
$$

NEZ044-045-051>053-067-240100-
OMAHA AREA

CITY           SKY/WX    TMP DP  RH WIND       PRES   REMARKS
OMAHA EPPLEY   CLOUDY    44  33  65 NW17G28   29.53R
6HR MIN TEMP:  43; 6HR MAX TEMP:  49; 6HR PCP: TRACE;

BLAIR          CLOUDY    43  32  64 NW20G25   29.52R
FREMONT        CLOUDY    43  31  62 NW14      29.56R
MILLARD        CLOUDY    45  33  63 NW13G22   29.53R
OFFUTT AFB     CLOUDY    44  33  65 NW18G24   29.51R
PLATTSMOUTH    CLOUDY    42  33  69 NW21G29   29.50S
WAHOO          CLOUDY    42  31  64 NW15      29.56R
$$


USA.gov is the U.S. government's official web portal to all federal, state and local government web resources and services.